Weather History for Tapachula Airport, Mexico

Change the Weather History Date:

Friday, November 16, 2012

  Actual Average Record
Temperature  
Mean Temperature 80 °F -  
Max Temperature 86 °F 86 °F 102 °F (1997)
Min Temperature 73 °F 73 °F 71 °F (2007)
Cooling Degree Days 14    
Growing Degree Days 30 (Base 50)    
Moisture  
Dew Point 73 °F    
Average Humidity 79    
Maximum Humidity 89    
Minimum Humidity 70    
Precipitation  
Precipitation 0.00 in - - ()
Sea Level Pressure  
Sea Level Pressure 29.90 in    
Wind  
Wind Speed 2 mph ()    
Max Wind Speed 12 mph    
Max Gust Speed -    
Visibility 10.0 miles    
Events      
Averages and records for this station are not official NWS values.
T = Trace of Precipitation, MM = Missing Value Source: Averaged Metar Reports

Daily Weather History Graph

Daily Weather History Graph

Search for Another Location

Airport:

Trip Planner

Search our weather history database for the weather conditions in past years. The results will help you decide how hot, cold, wet, or windy it might be!

Date:

Astronomy

Nov. 16, 2012 Rise Set
Actual Time 6:11 AM CST 5:37 PM CST
Civil Twilight 5:48 AM CST 5:59 PM CST
Nautical Twilight 5:22 AM CST 6:25 PM CST
Astronomical Twilight 4:56 AM CST 6:51 PM CST
Moon 8:59 AM CST (11/16) 8:42 PM CST (11/16)
Length of Visible Light 12h 10m
Length of Day
11h 25m
Waxing Crescent, 12% of the Moon is Illuminated
Nov 16
Waxing Crescent
Nov 20
First Quarter
Nov 28
Full
Dec 6
Last Quarter
Dec 13
New

Hourly Weather History & Observations

Time (CST) Temp. Heat Index Dew Point Humidity Pressure Visibility Wind Dir Wind Speed Gust Speed Precip Events Conditions
12:40 AM 75.2 °F - 69.8 °F 83% 29.93 in 10.0 mi Calm Calm - N/A   Partly Cloudy
1:40 AM 75.2 °F - 69.8 °F 83% 29.93 in 10.0 mi Calm Calm - N/A   Partly Cloudy
2:40 AM 75.2 °F - 69.8 °F 83% 29.93 in 10.0 mi Calm Calm - N/A   Partly Cloudy
3:45 AM 73.4 °F - 69.8 °F 88% 29.93 in 10.0 mi Calm Calm - N/A   Partly Cloudy
4:40 AM 75.2 °F - 69.8 °F 83% 29.91 in 10.0 mi Calm Calm - N/A   Partly Cloudy
5:44 AM 73.4 °F - 68.0 °F 83% 29.78 in 10.0 mi Calm Calm - N/A   Partly Cloudy
6:40 AM 75.2 °F - 68.0 °F 78% 29.94 in 10.0 mi Calm Calm - N/A   Partly Cloudy
7:40 AM 77.0 °F - 69.8 °F 78% 29.96 in 10.0 mi East 5.8 mph - N/A   Clear
8:40 AM 84.2 °F 92.3 °F 75.2 °F 74% 29.92 in 10.0 mi Calm Calm - N/A   Clear
9:40 AM 86.0 °F 95.1 °F 75.2 °F 70% 29.97 in 10.0 mi Calm Calm - N/A   Scattered Clouds
10:42 AM 86.0 °F 95.1 °F 75.2 °F 70% 29.97 in 10.0 mi Calm Calm - N/A   Mostly Cloudy
11:40 AM 86.0 °F 96.9 °F 77.0 °F 74% 29.91 in 10.0 mi SW 6.9 mph - N/A   Mostly Cloudy
12:40 PM 86.0 °F 96.9 °F 77.0 °F 74% 29.92 in 10.0 mi SW 6.9 mph - N/A   Mostly Cloudy
1:40 PM 86.0 °F 95.1 °F 75.2 °F 70% 29.91 in 10.0 mi SW 11.5 mph - N/A   Mostly Cloudy
2:45 PM 86.0 °F 96.9 °F 77.0 °F 74% 29.86 in 10.0 mi WSW 11.5 mph - N/A   Mostly Cloudy
3:45 PM 84.2 °F 94.1 °F 77.0 °F 79% 29.88 in 10.0 mi SW 8.1 mph - N/A   Scattered Clouds
4:40 PM 84.2 °F 92.3 °F 75.2 °F 74% 29.89 in 10.0 mi SW 10.4 mph - N/A   Scattered Clouds
5:40 PM 82.4 °F 90.9 °F 77.0 °F 84% 29.84 in 10.0 mi Calm Calm - N/A   Scattered Clouds
6:40 PM 82.4 °F 90.9 °F 77.0 °F 84% 29.89 in 10.0 mi Calm Calm - N/A   Scattered Clouds
7:40 PM 80.6 °F 85.4 °F 73.4 °F 79% 29.89 in 10.0 mi Calm Calm - N/A   Scattered Clouds
8:40 PM 78.8 °F - 73.4 °F 83% 29.85 in 10.0 mi Calm Calm - N/A   Scattered Clouds
9:40 PM 80.6 °F 85.4 °F 73.4 °F 79% 29.95 in 10.0 mi Calm Calm - N/A   Scattered Clouds
10:40 PM 77.0 °F - 73.4 °F 89% 29.96 in 10.0 mi Calm Calm - N/A   Scattered Clouds
11:40 PM 80.6 °F 85.4 °F 73.4 °F 79% 29.72 in 10.0 mi Calm Calm - N/A   Scattered Clouds